Weather Roundup
Issued by NWS Corpus Christi, TX

Home | Current Version | Previous Version | Text Only | Print | Product List | Glossary On
Versions: 1 2 3 4 5 6 7 8 9 10 11 12 13 14 15 16 17 18 19 20 21 22 23 24 25 26 27 28 29 30 31 32 33 34 35 36 37 38 39 40 41 42 43 44 45 46 47 48 49 50
000
ASUS44 KCRP 280510
HRRCRP

SOUTH TEXAS REGIONAL WEATHER ROUNDUP
NATIONAL WEATHER SERVICE CORPUS CHRISTI TX
1200 AM CDT THU AUG 28 2014


TXZ229>244-280600-
...CORPUS CHRISTI AREA OBSERVATIONS...

CITY           SKY/WX    TMP DP  RH WIND       PRES   REMARKS
CORPUS CHRISTI PTCLDY    83  77  82 E12       29.91F HX  92
NAS CORPUS CHR PTCLDY    83  79  88 NE15      29.91F HX  94
ROCKPORT       PTCLDY    84  77  79 E14       29.92S HX  94
KINGSVILLE NAS PTCLDY    83  76  79 E14       29.91F HX  91
ALICE          MOCLDY    83  74  74 E8        29.92F
FALFURRIAS     MOCLDY    81  72  74 NE7       29.92S
$$

...VICTORIA AREA OBSERVATIONS...

CITY           SKY/WX    TMP DP  RH WIND       PRES   REMARKS
VICTORIA       CLEAR     81  75  82 E6        29.95F
BEEVILLE       FAIR      82  73  74 E8        29.93F
PLEASANTON     CLEAR     83  68  60 E6        29.96S
SAN ANTONIO    CLEAR     83  67  58 E8        29.99R
$$

...LAREDO AREA OBSERVATIONS...

CITY           SKY/WX    TMP DP  RH WIND       PRES   REMARKS
LAREDO         CLEAR     87  70  57 E13       29.96S HX  92
COTULLA        CLEAR     86  65  49 SE9       29.95R
DEL RIO        CLEAR     88  64  44 E9        29.95R
MCALLEN        CLEAR     83  75  77 NE7       29.92S HX  90
HEBBRONVILLE   CLEAR     82  70  67 E7        29.96S
$$

...OTHER TEXAS OBSERVATIONS...

CITY           SKY/WX    TMP DP  RH WIND       PRES   REMARKS
BROWNSVILLE    PTCLDY    82  78  88 N3        29.88F HX  91
HOUSTON        PTCLDY    75  73  94 E6        29.97S
COL. STATION   CLEAR     80  71  74 SE5       29.98S
AUSTIN         CLEAR     82  69  64 SE8       29.97S
WACO           CLEAR     78  60  53 E5        29.98S
FORT WORTH     CLEAR     82  60  47 E3        29.99R
WICHITA FALLS  CLEAR     83  65  54 SE10      29.99S
LUBBOCK        CLOUDY    75  64  68 E8        30.09F
EL PASO        PTCLDY    76  57  51 CALM      30.12F
$$

...MARINE OBSERVATIONS...

STATION/POSITION TIME  SKY/WX   TEMP    WIND        PRES    VSBY  WAVE   SWELL
                                AIR SEA DIR/SP/G                  HT/PER HT/PER
                 (UTC)          (F)     (DEG/KT/KT) (MB)    (MI)  (FT/S) (FT/S)
PORT ARANSAS     0500            83 84   60/ 18/ 20 1013.4F
BUOY 90 E PORT A 0500            83 86   80/ 16/ 19 1012.8F         5/ 6
BUOY 45 SE BAFFI 0500            83 85   70/  8/ 10 1011.2S         5/ 7   5/ 7
BUOY 200 E PT IS 0500            86 87  120/ 14/ 16 1012.2F         3/ 8   2/ 8
BUOY 15 E GALVES 0500            85 87  110/ 16/ 17 1013.6S         4/ 5
$$


USA.gov is the U.S. government's official web portal to all federal, state and local government web resources and services.